Flag for Germany Weather past 2 weeks in Olpe, North Rhine-Westphalia, Germany

Now
68 °F

Sunny.


Feels Like: 68 °F
Forecast: 59 / 87 °F
Wind: 6 mph from Southeast

Location: Hessen

Current Time: Aug 29, 2015 at 11:15:08 PM

Latest Report: Aug 29, 2015 at 8:50 PM


Visibility: 10 mi

Pressure: 30.18 "Hg

Humidity: 88%

Dew point: 64 °F

Location of OlpeLocation

Historic Weather in Olpe — Graph

°F

Olpe temperature yesterday

Maximum temperature yesterday: 63 °F (at 4:20 PM)
Minimum temperature yesterday: 52 °F (at 7:50 AM)
Average temperature yesterday: 58 °F

Past Weeks' High & Low Weather Summary

 TemperatureHumidityPressure
High77 °F (Aug 29, 5:50 PM)100% (Aug 16, 7:50 AM)30.30 "Hg (Aug 16, 7:50 AM)
Low48 °F (Aug 18, 7:20 AM)41% (Aug 22, 5:50 PM)29.68 "Hg (Aug 24, 1:50 PM)
Average61 °F78%30.02 "Hg
* Reported Aug 14 8:20 PM — Aug 29 8:50 PM, Olpe, Weather by CustomWeather, © 2015

Note: Actual official high and low records may vary slightly from our data, if they occured in-between our weather recording intervals... More about our weather records

Advertising

Olpe weather history for previous 24 hours

 ConditionsComfort  
Time TempWeatherWind HumidityBarometerVisibility
8:50 PM
Sat, Aug 29
68 °FSunny.6 mph88%30.18 "Hg10 mi
8:20 PM70 °FSunny.6 mph83%30.18 "Hg10 mi
7:50 PM72 °FSunny.5 mph78%30.18 "Hg10 mi
7:20 PM73 °FSunny.6 mph78%30.18 "Hg10 mi
6:50 PM75 °FPassing clouds.6 mph69%30.18 "HgN/A
6:20 PM75 °FPassing clouds.6 mph69%30.18 "HgN/A
5:50 PM77 °FScattered clouds.3 mph65%30.21 "HgN/A
5:20 PM75 °FScattered clouds.6 mph69%30.21 "HgN/A
4:50 PM73 °FScattered clouds.8 mph74%30.21 "HgN/A
4:20 PM75 °FScattered clouds.7 mph69%30.21 "HgN/A
3:50 PM75 °FScattered clouds.7 mph69%30.21 "HgN/A
3:20 PM72 °FScattered clouds.6 mph78%30.21 "HgN/A
2:50 PM72 °FScattered clouds.8 mph73%30.24 "HgN/A
2:20 PM73 °FPartly sunny.7 mph69%30.24 "HgN/A
1:50 PM72 °FScattered clouds.9 mph73%30.24 "HgN/A
1:20 PM70 °FScattered clouds.8 mph73%30.24 "HgN/A
12:50 PM68 °FPartly sunny.8 mph78%30.24 "HgN/A
11:50 AM66 °FScattered clouds.9 mph78%30.24 "HgN/A
11:20 AM63 °FScattered clouds.10 mph83%30.24 "HgN/A
10:50 AM64 °FSunny.10 mph83%30.24 "Hg10 mi
9:50 AM61 °FSunny.10 mph83%30.24 "Hg10 mi
9:20 AM61 °FSunny.9 mph77%30.24 "Hg10 mi
8:50 AM57 °FSunny.8 mph88%30.24 "Hg10 mi
7:50 AM55 °FSunny.6 mph94%30.24 "Hg10 mi
Weather by CustomWeather, © 2015

See weather overviewHow to use our weather pages